Regional Weather Roundup
Issued by NWS Sioux Falls, SD

Home | Current Version | Previous Version | Text Only | Print | Product List | Glossary Off
Versions: 1 2 3 4 5 6 7 8 9 10 11 12 13 14 15 16 17 18 19 20 21 22 23 24 25 26 27 28 29 30 31 32 33 34 35 36 37 38 39 40 41 42 43 44 45 46 47 48 49 50

000
ASUS43 KFSD 221110
RWRFSD

WEATHER ROUNDUP FOR SE SOUTH DAKOTA/SW MINNESOTA/NW IOWA
NATIONAL WEATHER SERVICE SIOUX FALLS SD
600 AM CDT TUE JUL 22 2014

NOTE: "FAIR" INDICATES FEW OR NO CLOUDS BELOW 12,000 FEET WITH NO
SIGNIFICANT WEATHER AND OR OBSTRUCTIONS TO VISIBILITY.


SDZ038>040-050-052>070-221200-
SOUTHEAST SOUTH DAKOTA

CITY           SKY/WX    TMP DP  RH WIND       PRES   REMARKS
CHAMBERLAIN    NOT AVBL
HURON          CLOUDY    66  63  90 N6        30.00R
MADISON        LGT RAIN  66  66 100 NW17      30.04F
MITCHELL       MOCLDY    68  64  87 MISG      29.94F
SIOUX FALLS    MOCLDY    71  62  73 N8        30.01R
WINNER         FAIR      67  63  87 W6        30.04F
YANKTON        PTCLDY    70  63  78 N13G21    30.00R
$$

MNZ071-072-080-081-089-090-097-098-221200-
SOUTHWEST MINNESOTA

CITY           SKY/WX    TMP DP  RH WIND       PRES   REMARKS
FAIRMONT       MOCLDY    77  72  83 NW14      29.91R
LUVERNE        PTCLDY    70  63  78 NW15G23   30.04R
MARSHALL       MOCLDY    68  63  83 NW9       29.99R
MONTEVIDEO     MOCLDY    66  64  94 N10       29.99R
PIPESTONE      MOCLDY    70  63  78 NW14      30.07R
REDWOOD FALLS  MOCLDY    70  65  84 NW14      29.96R
TRACY          PTCLDY    69  64  84 NW10      30.02R
WINDOM         CLEAR     70  64  83 NW8       29.94R
WORTHINGTON    PTCLDY    70  64  83 NW20G28   30.02R
$$

IAZ001>003-012>014-020>022-031-032-NEZ013-014-SDZ071-221200-
NORTHWEST IOWA

CITY           SKY/WX    TMP DP  RH WIND       PRES   REMARKS
ESTHERVILLE    CLEAR     76  75  97 NW8       29.91R FOG
SIOUX CITY     CLEAR     79  73  82 NW18G26   29.92R
SPENCER        CLEAR     74  72  93 NW7       29.91S FOG
$$

ABBREVIATIONS USED IN REMARKS
   TC - TEMPERATURE IN CELSIUS
  WCI - WIND CHILL INDEX
   HX - HEAT INDEX
  VSB - VISIBILITY



USA.gov is the U.S. government's official web portal to all federal, state and local government web resources and services.